Location: *
(49.4547°N, 7.9131°E)
Time: 04:18:48
(UTC+00:00)

ISS - Pass Details

Date: 22 September 2019
Orbit: 411 x 421 km, 51.6° (Epoch: 20 October)

Event Time Altitude Azimuth Distance (km) Brightness Sun altitude
Rises 19:18:30 0° 245° (WSW) 2,338 0.7 -18.4°
Reaches altitude 10° 19:20:36 10° 244° (WSW) 1,478 -0.5 -18.7°
Enters shadow 19:23:54 77° 158° (SSE) 427 -3.9 -19.2°
